Marion, OH

7:26 AM EDT on April 30, 2017 (GMT -0400)
Marion Municipal

Weather History for KMNN - February, 2014

Change the Weather History Date:

Friday, February 14, 2014

  Actual Average (KDLZ) Record (KDLZ)
Temperature  
Mean Temperature 26 °F -  
Max Temperature 32 °F 34 °F 66 °F (1990)
Min Temperature 19 °F 17 °F -3 °F (1988)
Degree Days  
Heating Degree Days 40    
Moisture  
Dew Point 17 °F    
Average Humidity 77    
Maximum Humidity 89    
Minimum Humidity 56    
Precipitation  
Precipitation 0.00 in - - ()
Sea Level Pressure  
Sea Level Pressure 29.69 in    
Wind  
Wind Speed 11 mph (West)    
Max Wind Speed 22 mph    
Max Gust Speed 29 mph    
Visibility 5 miles    
Events Snow    
Averages and records for this station are not official NWS values.
T = Trace of Precipitation, MM = Missing Value Source: NWS Daily Summary

Daily Weather History Graph

Daily Weather History Graph

Search for Another Location

Airport or City:

Trip Planner

Search our weather history database for the weather conditions in past years. The results will help you decide how hot, cold, wet, or windy it might be!

Date:

Astronomy

Feb. 14, 2014 Rise Set
Actual Time 7:27 AM EST 6:06 PM EST
Civil Twilight 6:59 AM EST 6:34 PM EST
Nautical Twilight 6:27 AM EST 7:06 PM EST
Astronomical Twilight 5:55 AM EST 7:37 PM EST
Moon 6:09 PM EST (2/14) 6:53 AM EST (2/14)
Length of Visible Light 11h 34m
Length of Day
10h 38m
Full, 100% of the Moon is Illuminated
Feb 14
Full
Feb 14
Full
Feb 22
Last Quarter
Mar 1
New
Mar 8
First Quarter

Hourly Weather History & Observations

Time (EST) Temp. Windchill Dew Point Humidity Pressure Visibility Wind Dir Wind Speed Gust Speed Precip Events Conditions
12:53 AM 28.9 °F 19.8 °F 15.1 °F 56% 29.57 in 9.0 mi SW 10.4 mph - N/A   Overcast
1:25 AM 28.9 °F 19.2 °F 16.0 °F 58% 29.52 in 9.0 mi SSW 11.5 mph - N/A   Overcast
1:53 AM 28.9 °F 19.2 °F 16.0 °F 58% 29.54 in 9.0 mi SSW 11.5 mph - N/A   Overcast
2:53 AM 28.9 °F 19.2 °F 18.0 °F 64% 29.52 in 9.0 mi SW 11.5 mph - N/A   Overcast
3:53 AM 32.0 °F 22.1 °F 21.0 °F 64% 29.52 in 9.0 mi WSW 13.8 mph - N/A   Overcast
4:00 AM 32.0 °F 20.5 °F 21.0 °F 64% 29.49 in 8.0 mi West 18.4 mph 25.3 mph N/A   Overcast
4:53 AM 30.0 °F 16.9 °F 21.9 °F 72% 29.55 in 7.0 mi WNW 21.9 mph 28.8 mph N/A   Overcast
5:53 AM 24.1 °F 10.6 °F 18.0 °F 77% 29.60 in 8.0 mi West 17.3 mph - N/A   Overcast
6:53 AM 23.0 °F 10.1 °F 17.1 °F 78% 29.62 in 8.0 mi West 15.0 mph 26.5 mph N/A   Overcast
7:53 AM 23.0 °F 9.6 °F 17.1 °F 78% 29.65 in 6.0 mi West 16.1 mph 21.9 mph N/A   Haze
8:53 AM 21.9 °F 12.5 °F 17.1 °F 82% 29.68 in 5.0 mi West 8.1 mph - N/A   Haze
9:17 AM 21.9 °F 10.4 °F 17.1 °F 82% 29.66 in 5.0 mi West 11.5 mph - N/A   Haze
9:53 AM 21.9 °F 8.7 °F 16.0 °F 78% 29.73 in 5.0 mi West 15.0 mph - N/A   Haze
10:37 AM 21.9 °F 8.2 °F 16.0 °F 78% 29.69 in 5.0 mi WSW 16.1 mph - N/A   Haze
10:53 AM 21.9 °F 9.2 °F 16.0 °F 78% 29.73 in 5.0 mi West 13.8 mph - N/A   Haze
11:53 AM 21.9 °F 9.2 °F 16.0 °F 78% 29.76 in 5.0 mi WSW 13.8 mph - N/A   Haze
12:53 PM 23.0 °F 10.6 °F 16.0 °F 74% 29.76 in 5.0 mi WSW 13.8 mph - N/A   Haze
1:53 PM 23.0 °F 11.1 °F 16.0 °F 74% 29.75 in 5.0 mi West 12.7 mph - N/A   Haze
2:24 PM 21.9 °F 11.7 °F 15.1 °F 75% 29.69 in 5.0 mi West 9.2 mph - N/A   Haze
2:53 PM 23.0 °F 13.1 °F 15.1 °F 72% 29.74 in 6.0 mi West 9.2 mph - N/A   Haze
3:53 PM 23.0 °F 17.0 °F 16.0 °F 74% 29.73 in 6.0 mi WSW 4.6 mph - N/A   Haze
4:53 PM 24.1 °F 18.2 °F 15.1 °F 69% 29.73 in 6.0 mi WNW 4.6 mph - N/A   Haze
5:53 PM 24.1 °F 19.7 °F 16.0 °F 71% 29.74 in 5.0 mi NNW 3.5 mph - N/A   Haze
6:53 PM 21.9 °F 13.4 °F 17.1 °F 82% 29.76 in 2.5 mi NW 6.9 mph - 0.00 in Snow Light Snow
7:24 PM 21.0 °F 11.4 °F 17.1 °F 85% 29.72 in 1.8 mi NW 8.1 mph - 0.00 in Snow Light Snow
7:53 PM 21.0 °F 12.4 °F 18.0 °F 88% 29.77 in 1.8 mi NW 6.9 mph - 0.00 in Snow Light Snow
8:13 PM 19.9 °F 11.1 °F 17.1 °F 89% 29.73 in 2.0 mi NW 6.9 mph - 0.00 in Snow Light Snow
8:45 PM 19.9 °F 12.1 °F 17.1 °F 89% 29.73 in 3.0 mi NW 5.8 mph - 0.00 in   Overcast
8:53 PM 19.9 °F 13.4 °F 17.1 °F 89% 29.78 in 4.0 mi NW 4.6 mph - 0.00 in   Overcast
9:18 PM 19.9 °F 12.1 °F 17.1 °F 89% 29.72 in 2.5 mi NNW 5.8 mph - 0.00 in Snow Light Snow
9:30 PM 19.9 °F 12.1 °F 17.1 °F 89% 29.73 in 3.0 mi NNW 5.8 mph - 0.00 in   Overcast
9:53 PM 19.9 °F 10.1 °F 17.1 °F 89% 29.79 in 3.0 mi NNW 8.1 mph - 0.00 in   Overcast
10:53 PM 19.9 °F 9.3 °F 16.0 °F 85% 29.81 in 4.0 mi NNW 9.2 mph - 0.00 in Snow Light Snow
11:53 PM 19.9 °F 9.3 °F 15.1 °F 81% 29.80 in 5.0 mi NNW 9.2 mph - 0.00 in   Haze